Regional Weather Roundup
Issued by NWS Wakefield, VA

Current Version | Previous Version | Text Only | Print | Product List | Glossary Off
Versions: 1 2 3 4 5 6 7 8 9 10 11 12 13 14 15 16 17 18 19 20 21 22 23 24 25 26 27 28 29 30 31 32 33 34 35 36 37 38 39 40 41 42 43 44 45 46 47 48 49 50

000
ASUS41 KAKQ 211616
RWRAKQ

REGIONAL WEATHER ROUNDUP
NATIONAL WEATHER SERVICE WAKEFIELD VA
1200 PM EDT SAT OCT 21 2017

Note: "fair" indicates few or no clouds below 12,000 feet with no
significant weather and/or obstructions to visibility. * = Denotes
station may not report precipitation (e.g., rain,snow,etc.),
thunder or fog.

VAZ042-051-052>054-056-211700-
NORTHERN VIRGINIA

CITY           SKY/WX    TMP DP  RH WIND       PRES   REMARKS
WASH NATIONAL  PTSUNNY   73  44  35 CALM      30.37S
DULLES         PTSUNNY   71  48  43 W3        30.36F
FORT BELVOIR   SUNNY     72  45  37 CALM      30.36F
QUANTICO       SUNNY     68  55  63 E5        30.37F
FREDERICKSBRG* SUNNY     73  50  43 E5        30.35S
STAFFORD*      SUNNY     72  49  43 CALM      30.40S
WARRENTON      SUNNY     74  43  32 E3        30.35F
CULPEPER*      SUNNY     73  42  32 CALM      30.37S
MANASSAS*      SUNNY     71  47  42 CALM      30.36F
LEESBURG*      SUNNY     72  50  46 CALM      30.37F
WINCHESTER     SUNNY     64  46  52 E3        30.35F
FRONT ROYAL*   SUNNY     66  50  55 CALM      30.35F
LURAY*         SUNNY     68  48  49 CALM      30.36S
$$

VAZ048-049-060>072-079>083-211700-
CENTRAL AND SOUTH CENTRAL VIRGINIA

CITY           SKY/WX    TMP DP  RH WIND       PRES   REMARKS
RICHMOND       MOSUNNY   72  49  44 SE3       30.35S
CHESTERFIELD*  NOT AVBL
PETERSBURG*    SUNNY     71  55  55 CALM      30.36S
HANOVER        SUNNY     72  48  42 E3        30.37S
TAPPAHANNOCK*  SUNNY     73  45  36 CALM      30.36S
QUINTON*       FAIR      71  53  52 CALM      30.35S
CHARLOTTSVILLE SUNNY     73  48  41 CALM      30.36S
GORDONSVILLE*  SUNNY     72  46  39 SE3       30.35S
ORANGE*        SUNNY     72  45  37 CALM      30.35F
LOUISA*        SUNNY     72  48  43 CALM      30.35S
BUMPASS*       FAIR      72  51  47 CALM      30.35S
FARMVILLE*     SUNNY     75  56  51 CALM      30.35S
CREWE*         FAIR      72  56  58 CALM      30.35S
FORT PICKETT*  FAIR      72  56  55 N3        30.35F
CHASE CITY*    FAIR      74  52  45 CALM      30.35S
CLARKSVILLE*   FAIR      72  54  53 CALM      30.35S
SOUTH HILL*    SUNNY     73  54  50 CALM      30.41S
LAWRENCEVILLE* FAIR      74  54  50 CALM      30.35S
EMPORIA*       SUNNY     72  54  53 CALM      30.36F
$$

VAZ088>098-211700-
SOUTHEAST VIRGINIA

CITY           SKY/WX    TMP DP  RH WIND       PRES   REMARKS
NORFOLK        SUNNY     72  57  59 NE7       30.34F
VIRGINIA BEACH MOSUNNY   73  50  44 NW6       30.34S
NORFOLK NAVAL  MOSUNNY   74  55  51 N6        30.36S
WEST POINT*    SUNNY     73  55  53 CALM      30.37S
SALUDA*        FAIR      70  59  67 E3        30.35F
NEWPORT NEWS   SUNNY     74  55  51 CALM      30.35S
LANGLEY AFB    SUNNY     73  57  56 E5        30.34F
FORT EUSTIS    SUNNY     80  62  55 W3        30.32F
WILLIAMSBURG*  SUNNY     75  57  53 CALM      30.35F
HR EXEC AP*    NOT AVBL
FRANKLIN*      SUNNY     74  53  47 E5        30.35S
US460-WAKEFLD  SUNNY     73  56  54 CALM      30.35S
$$

VAZ020-022-025-037-045-211700-
WEST CENTRAL AND SOUTHWEST VIRGINIA

CITY           SKY/WX    TMP DP  RH WIND       PRES   REMARKS
STAUNTON*      SUNNY     67  49  52 CALM      30.38F
WAYNESBORO*    SUNNY     69  53  55 CALM      30.37S
HOT SPRINGS VA SUNNY     63  45  51 S5        30.43R
LYNCHBURG      SUNNY     72  50  45 CALM      30.36S
DANVILLE       SUNNY     72  55  55 VRB3      30.36S
SOUTH BOSTON*  FAIR      74  50  43 CALM      30.36S
MARTINSVILLE   SUNNY     71  51  50 CALM      30.38F
ROANOKE        MOSUNNY   68  53  58 CALM      30.38F
BLACKSBURG     SUNNY     67  50  52 CALM      30.41S
DUBLIN*        SUNNY     65  52  64 CALM      30.40S
MARION*        CLOUDY    65  46  49 NE5       30.41S
HILLSVILLE*    SUNNY     67  41  38 CALM      30.38S
RICHLANDS*     FAIR      67 -26   2 CALM      30.37S
WISE*          MOSUNNY   68  45  42 CALM      30.37F
ABINGDON*      MOSUNNY   70  47  43 E3        30.35S
$$

MDZ021>025-VAZ099-100-211700-
SOUTHERN MARYLAND AND THE DELMARVA PENINSULA

CITY           SKY/WX    TMP DP  RH WIND       PRES   REMARKS
PATUXENT RIVER MOSUNNY   71  52  50 NE6       30.36S
BAY BRIDGE APT SUNNY     68  55  64 W6        30.37S
LEONARDTOWN    NOT AVBL
DOVER          MOSUNNY   71  40  31 E3        30.35F
GEORGETOWN     SUNNY     73  50  44 CALM      30.36F
EASTON         SUNNY     73  39  29 SE3       30.40S
CAMBRIDGE      SUNNY     70  45  40 CALM      30.36F
SALISBURY      SUNNY     73  47  39 CALM      30.35F
OCEAN CITY     SUNNY     71  56  58 NE7       30.36F
WALLOPS ISLAND SUNNY     72  50  45 E5        30.36S
ACCOMACK*      SUNNY     74  47  39 CALM      30.35S
$$

NCZ012>017-030>032-211700-
NORTH CENTRAL AND EASTERN NORTH CAROLINA

CITY           SKY/WX    TMP DP  RH WIND       PRES   REMARKS
ROANOKE RAPIDS FAIR      72  55  56 CALM      30.35S
RALEIGH        MOSUNNY   73  53  49 SE5       30.35S
ELIZABETH CITY SUNNY     74  57  55 N3        30.34F
AHOSKIE*       SUNNY     71  56  59 E3        30.35S
EDENTON*       SUNNY     75  57  52 CALM      30.35S
CURRITUCK*     SUNNY     72  54  53 NE5       30.36S
KILL DEVIL HLS SUNNY     70  59  66 CALM      30.34S
MANTEO         SUNNY    N/A N/A N/A NE8       30.35S
CAPE HATTERAS  SUNNY     73  64  73 NE9       30.34S
TARBORO*       NOT AVBL
GOLDSBORO      NOT AVBL
WASHINGTON     SUNNY     74  54  50 CALM      30.35S
GREENVILLE     SUNNY     73  55  53 CALM      30.35S
NEW BERN       SUNNY     74  55  51 E7        30.35S
WILMINGTON     SUNNY     76  58  53 SE6       30.33R
$$

VAZ048-211700-
ELSEWHERE

CITY           SKY/WX    TMP DP  RH WIND       PRES   REMARKS
HARRISBURG PA  MOSUNNY   63  52  67 CALM      30.35F
BALTIMORE      PTSUNNY   71  43  36 SE5       30.36F
ANNAPOLIS      SUNNY     70  52  52 SE6       30.37S
ANDREWS AFB    SUNNY     71  44  38 CALM      30.36S
PHILADELPHIA   MOSUNNY   71  45  39 VRB3      30.36S
HENDERSON NC   SUNNY     71  51  50 CALM      30.35F
GREENSBORO     PTSUNNY   72  52  49 VRB6      30.35S
ROCKY MOUNT    SUNNY     73  57  57 E3        30.34F
$$

VAZ100-211700-
MARINE

STATION/POSITION TIME  TEMP    WIND        PRES    WAVE   SWELL
                       AIR SEA DIR/SP/G            HT/PER HT/PER
                 (UTC) (F)     (DEG/KT/KT) (MB)    (FT/S) (FT/S)
BRANDYWINE LGT   1536   65        CALM     1028.5S
CAPE MAY NJ      1548   65 65  280/  4/  4 1027.5F
LEWES DE         1548   65 65   60/  6/  7 1028.0S
15NM E FENWICK I 1550   67 68   20/  4/  6 1028.3F   2/ 9   2/ 9
OCEAN-CITY-INLET 1548   68 66   50/  3/  5 1028.5R
WACHAPREAGUE VA  1548   71 66   80/  3/  5 1027.9R
THOMAS POINT MD  1600   64 67   20/  3/  3   N/A
GOOSES REEF MD   1600   67 69   50/  4/  4 1033.5    1
COVE POINT MD    1548   66      10/  4/  6 1028.8F
SOLOMONS ISLAND  1548   66 69  190/  3/  4 1027.7F
BISHOPS HEAD MD  1548   68 66   20/  4/  6 1028.5F
PINEY POINT MD   1536          310/  2/  3   N/A
POTOMAC MD       1600   67 70   60/  8/ 10 1027.4    0
CAMBRIDGE MD     1536   67 67              1029.1S
LEWISETTA VA     1548   67 65   90/  3/  4 1028.0S
RAPPAHANNOCK LGT 1548          360/  5/  6 1028.6S
STINGRAY PT      1600   67 69   70/  4/  6 1028.3    0
YORK RVR RNG VA  1548   70     100/  3/  3 1028.3F
YORKTOWN VA      1548   67 69   60/  3/  3 1027.5S
JAMESTOWN VA     1600      70  220/  2/  4   N/A     0
DOMINION TERM VA 1548   69     300/  3/  4 1027.8F
KIPTOPEKE VA     1548      68  310/  5/  7   N/A
CAPE HENRY VA    1548   68     340/  4/  5   N/A
WILLOUBY STN VA  1548   68      70/  3/  4 1027.7F
S CRANEY ISL VA  1548   69      10/  5/  5 1027.5F
CAPE HENRY BUOY  1600      70                N/A     2/ 8
1ST LANDING BUOY 1510   68                 1027.6
CAPE CHARLES BUO 1551      70                N/A     2/ 9
64NM E OF VA BCH 1550   67 68   20/  6/  8 1028.1R   3/ 8   3/ 8
DUCK PIER NC     1548   68 70   20/  9/ 10 1027.2F
44100 DUCK FRF   1535      70                N/A     2/ 8
44056 DUCK FRF   1600      70                N/A     2/ 8
OREGON INLET NC  1536   69 69   20/  8/  9 1027.5R
HATTERAS NC      1548   68 71   20/ 10/ 12 1027.1F
DIAMOND SHLS NC  1550   73 81   20/ 10/ 14 1026.8R   3/ 9   2/ 9
CAPE LOOKOUT NC  1600   72      40/  8/  9 1026.8R
$$



USA.gov is the U.S. government's official web portal to all federal, state and local government web resources and services.